Pure Adrenalin — VJD3680 — position and weather

sailwx.info

Track history (hours):
 
Tides and Currents Weather Stations Pressure Air Temp Water Temp Dewpoint Dewpoint Depression Visibility Wind Speed Wind Dir Waves Ship Positions

Pure Adrenalin

Last reported at 2014-Oct-25 11:33 UTC. Time now 2014-Oct-25 12:36 UTC.
Position S 12°28' E 130°51'.

Length 21 m.

Type: Ship. MMSI: 503642100.

Date/timePositionNaut miles runAvg speedWind from/ knotsBaromVisibWave heightAir tempDewpointWater temp
2014-Oct-25 11:33S 12°28' E 130°51'0 0.0
2014-Oct-25 10:33S 12°28' E 130°51'0 0.0
2014-Oct-25 09:21S 12°28' E 130°51'0 0.0
2014-Oct-24 19:09S 12°28' E 130°51'0 0.0
2014-Oct-24 17:33S 12°28' E 130°51'0 0.0
2014-Oct-24 16:33S 12°28' E 130°51'0 0.0
2014-Oct-24 15:27S 12°28' E 130°51'0 0.0
2014-Oct-24 14:09S 12°28' E 130°51'0 0.0
2014-Oct-24 13:33S 12°28' E 130°51'0 0.0
2014-Oct-24 12:33S 12°28' E 130°51'0 0.0
2014-Oct-24 10:33S 12°28' E 130°51'0 0.0
2014-Oct-24 08:14S 12°28' E 130°51'1 0.9
2014-Oct-24 07:30S 12°28' E 130°51'0 0.0
2014-Oct-24 06:30S 12°28' E 130°51'0 0.0
2014-Oct-24 04:33S 12°28' E 130°51'0 0.0
2014-Oct-24 03:24S 12°28' E 130°51'0 0.0
2014-Oct-24 02:30S 12°28' E 130°51'0 0.0
2014-Oct-24 01:30S 12°28' E 130°51'0 0.0
2014-Oct-24 00:30S 12°28' E 130°51'0 0.0
2014-Oct-23 23:30S 12°28' E 130°51'0 0.0
2014-Oct-23 22:06S 12°28' E 130°51'0 0.0
2014-Oct-23 21:30S 12°28' E 130°51'0 0.1
2014-Oct-23 20:31S 12°28' E 130°51'1 0.9
2014-Oct-23 19:33S 12°28' E 130°51'1717.4
2014-Oct-23 18:33S 12°22' E 130°34'8 1.0
2014-Oct-23 10:33S 12°23' E 130°26'1716.6
2014-Oct-23 09:33S 12°23' E 130°43'9 8.2
2014-Oct-23 08:27S 12°28' E 130°51'1 0.1
2014-Oct-22 21:31S 12°28' E 130°51'1 0.7
2014-Oct-22 20:25S 12°28' E 130°51'6 7.5
2014-Oct-22 19:33S 12°24' E 130°46'1818.2
2014-Oct-22 18:33S 12°23' E 130°27'3 0.3
2014-Oct-22 10:33S 12°22' E 130°30'1818.1
2014-Oct-22 09:33S 12°27' E 130°48'2 0.2
2014-Oct-21 21:09S 12°28' E 130°49'2 2.5
2014-Oct-21 20:33S 12°28' E 130°51'2712.8
2014-Oct-21 18:28S 12°23' E 130°24'4 0.8
2014-Oct-21 13:10S 12°23' E 130°19'1016.6
2014-Oct-21 12:33S 12°22' E 130°30'1616.2
2014-Oct-21 11:33S 12°25' E 130°46'5 5.3
2014-Oct-21 10:31S 12°28' E 130°51'1 0.9
2014-Oct-21 09:33S 12°28' E 130°51'16 1.1
2014-Oct-20 19:33S 12°22' E 130°36'19 2.3
2014-Oct-20 11:17S 12°23' E 130°17'1216.8
2014-Oct-20 10:34S 12°22' E 130°30'1616.1
2014-Oct-20 09:33S 12°25' E 130°46'6 4.3
2014-Oct-20 08:13S 12°28' E 130°51'2 0.1
2014-Oct-19 21:31S 12°28' E 130°49'2 1.9
2014-Oct-19 20:33S 12°28' E 130°51'1 0.6
2014-Oct-19 19:33S 12°28' E 130°51'1716.5
2014-Oct-19 18:33S 12°22' E 130°35'14 2.0
2014-Oct-19 11:32S 12°23' E 130°21'1717.1
2014-Oct-19 10:33S 12°22' E 130°39'1313.1
2014-Oct-19 09:32S 12°28' E 130°51'1312.3
2014-Oct-19 08:29S 12°22' E 130°39'15 1.5
2014-Oct-18 22:28S 12°22' E 130°24'1617.2
2014-Oct-18 21:34S 12°22' E 130°40'1211.4
2014-Oct-18 20:30S 12°28' E 130°51'1414.3
2014-Oct-18 19:33S 12°22' E 130°38'1716.8
2014-Oct-18 18:33S 12°23' E 130°21'2 0.3
2014-Oct-18 11:31S 12°23' E 130°19'1616.2
2014-Oct-18 10:33S 12°22' E 130°35'1615.6
2014-Oct-18 09:33S 12°28' E 130°50'1 1.0
2014-Oct-18 08:28S 12°28' E 130°51'1514.6
2014-Oct-18 07:28S 12°22' E 130°37'1617.5
2014-Oct-18 06:33S 12°23' E 130°21'2 0.2
2014-Oct-17 22:33S 12°22' E 130°22'1717.1
2014-Oct-17 21:33S 12°22' E 130°40'1211.4
2014-Oct-17 20:29S 12°28' E 130°51'0 0.0
2014-Oct-17 19:29S 12°28' E 130°51'0 0.0
2014-Oct-17 18:29S 12°28' E 130°51'0 0.0
2014-Oct-17 17:29S 12°28' E 130°51'0 0.0
2014-Oct-17 16:29S 12°28' E 130°51'0 0.0
2014-Oct-17 15:29S 12°28' E 130°51'0 0.0
2014-Oct-17 14:29S 12°28' E 130°51'0 0.0
2014-Oct-17 13:29S 12°28' E 130°51'0 0.0
2014-Oct-17 12:29S 12°28' E 130°51'0 0.0
2014-Oct-17 11:29S 12°28' E 130°51'0 0.0
2014-Oct-17 10:29S 12°28' E 130°51'0 0.1
2014-Oct-17 09:29S 12°28' E 130°51'1314.0
2014-Oct-17 08:33S 12°22' E 130°39'1716.5
2014-Oct-17 07:33S 12°22' E 130°22'5 0.6
2014-Oct-16 23:28S 12°22' E 130°27'1415.2
2014-Oct-16 22:33S 12°23' E 130°42'10 9.6
2014-Oct-16 21:29S 12°28' E 130°51'1 0.7
2014-Oct-16 20:27S 12°28' E 130°51'5 5.9
2014-Oct-16 19:33S 12°25' E 130°46'1717.5
2014-Oct-16 18:33S 12°21' E 130°29'10 1.5
2014-Oct-16 11:30S 12°22' E 130°18'1717.3
2014-Oct-16 10:29S 12°22' E 130°36'1615.6
2014-Oct-16 09:29S 12°28' E 130°51'9 9.2
2014-Oct-16 08:33S 12°23' E 130°44'1717.3
2014-Oct-16 07:33S 12°22' E 130°26'4 0.4
2014-Oct-15 22:33S 12°21' E 130°23'1616.5
2014-Oct-15 21:33S 12°22' E 130°39'1310.5
2014-Oct-15 20:21S 12°28' E 130°50'1416.4
2014-Oct-15 19:30S 12°22' E 130°38'1716.6
2014-Oct-15 18:30S 12°23' E 130°21'17 3.3
2014-Oct-15 13:09S 12°23' E 130°03'1016.0
2014-Oct-15 12:32S 12°23' E 130°13'  
Track history (hours):
 
Tides and Currents Weather Stations Pressure Air Temp Water Temp Dewpoint Dewpoint Depression Visibility Wind Speed Wind Dir Waves Ship Positions

Pure Adrenalin

Last reported at 2014-Oct-25 11:33 UTC. Time now 2014-Oct-25 12:36 UTC.
Position S 12°28' E 130°51'.

Length 21 m.

Type: Ship. MMSI: 503642100.

Date/timePositionNaut miles runAvg speedWind from/ knotsBaromVisibWave heightAir tempDewpointWater temp
2014-Oct-25 11:33S 12°28' E 130°51'0 0.0
2014-Oct-25 10:33S 12°28' E 130°51'0 0.0
2014-Oct-25 09:21S 12°28' E 130°51'0 0.0
2014-Oct-24 19:09S 12°28' E 130°51'0 0.0
2014-Oct-24 17:33S 12°28' E 130°51'0 0.0
2014-Oct-24 16:33S 12°28' E 130°51'0 0.0
2014-Oct-24 15:27S 12°28' E 130°51'0 0.0
2014-Oct-24 14:09S 12°28' E 130°51'0 0.0
2014-Oct-24 13:33S 12°28' E 130°51'0 0.0
2014-Oct-24 12:33S 12°28' E 130°51'0 0.0
2014-Oct-24 10:33S 12°28' E 130°51'0 0.0
2014-Oct-24 08:14S 12°28' E 130°51'1 0.9
2014-Oct-24 07:30S 12°28' E 130°51'0 0.0
2014-Oct-24 06:30S 12°28' E 130°51'0 0.0
2014-Oct-24 04:33S 12°28' E 130°51'0 0.0
2014-Oct-24 03:24S 12°28' E 130°51'0 0.0
2014-Oct-24 02:30S 12°28' E 130°51'0 0.0
2014-Oct-24 01:30S 12°28' E 130°51'0 0.0
2014-Oct-24 00:30S 12°28' E 130°51'0 0.0
2014-Oct-23 23:30S 12°28' E 130°51'0 0.0
2014-Oct-23 22:06S 12°28' E 130°51'0 0.0
2014-Oct-23 21:30S 12°28' E 130°51'0 0.1
2014-Oct-23 20:31S 12°28' E 130°51'1 0.9
2014-Oct-23 19:33S 12°28' E 130°51'1717.4
2014-Oct-23 18:33S 12°22' E 130°34'8 1.0
2014-Oct-23 10:33S 12°23' E 130°26'1716.6
2014-Oct-23 09:33S 12°23' E 130°43'9 8.2
2014-Oct-23 08:27S 12°28' E 130°51'1 0.1
2014-Oct-22 21:31S 12°28' E 130°51'1 0.7
2014-Oct-22 20:25S 12°28' E 130°51'6 7.5
2014-Oct-22 19:33S 12°24' E 130°46'1818.2
2014-Oct-22 18:33S 12°23' E 130°27'3 0.3
2014-Oct-22 10:33S 12°22' E 130°30'1818.1
2014-Oct-22 09:33S 12°27' E 130°48'2 0.2
2014-Oct-21 21:09S 12°28' E 130°49'2 2.5
2014-Oct-21 20:33S 12°28' E 130°51'2712.8
2014-Oct-21 18:28S 12°23' E 130°24'4 0.8
2014-Oct-21 13:10S 12°23' E 130°19'1016.6
2014-Oct-21 12:33S 12°22' E 130°30'1616.2
2014-Oct-21 11:33S 12°25' E 130°46'5 5.3
2014-Oct-21 10:31S 12°28' E 130°51'1 0.9
2014-Oct-21 09:33S 12°28' E 130°51'16 1.1
2014-Oct-20 19:33S 12°22' E 130°36'19 2.3
2014-Oct-20 11:17S 12°23' E 130°17'1216.8
2014-Oct-20 10:34S 12°22' E 130°30'1616.1
2014-Oct-20 09:33S 12°25' E 130°46'6 4.3
2014-Oct-20 08:13S 12°28' E 130°51'2 0.1
2014-Oct-19 21:31S 12°28' E 130°49'2 1.9
2014-Oct-19 20:33S 12°28' E 130°51'1 0.6
2014-Oct-19 19:33S 12°28' E 130°51'1716.5
2014-Oct-19 18:33S 12°22' E 130°35'14 2.0
2014-Oct-19 11:32S 12°23' E 130°21'1717.1
2014-Oct-19 10:33S 12°22' E 130°39'1313.1
2014-Oct-19 09:32S 12°28' E 130°51'1312.3
2014-Oct-19 08:29S 12°22' E 130°39'15 1.5
2014-Oct-18 22:28S 12°22' E 130°24'1617.2
2014-Oct-18 21:34S 12°22' E 130°40'1211.4
2014-Oct-18 20:30S 12°28' E 130°51'1414.3
2014-Oct-18 19:33S 12°22' E 130°38'1716.8
2014-Oct-18 18:33S 12°23' E 130°21'2 0.3
2014-Oct-18 11:31S 12°23' E 130°19'1616.2
2014-Oct-18 10:33S 12°22' E 130°35'1615.6
2014-Oct-18 09:33S 12°28' E 130°50'1 1.0
2014-Oct-18 08:28S 12°28' E 130°51'1514.6
2014-Oct-18 07:28S 12°22' E 130°37'1617.5
2014-Oct-18 06:33S 12°23' E 130°21'2 0.2
2014-Oct-17 22:33S 12°22' E 130°22'1717.1
2014-Oct-17 21:33S 12°22' E 130°40'1211.4
2014-Oct-17 20:29S 12°28' E 130°51'0 0.0
2014-Oct-17 19:29S 12°28' E 130°51'0 0.0
2014-Oct-17 18:29S 12°28' E 130°51'0 0.0
2014-Oct-17 17:29S 12°28' E 130°51'0 0.0
2014-Oct-17 16:29S 12°28' E 130°51'0 0.0
2014-Oct-17 15:29S 12°28' E 130°51'0 0.0
2014-Oct-17 14:29S 12°28' E 130°51'0 0.0
2014-Oct-17 13:29S 12°28' E 130°51'0 0.0
2014-Oct-17 12:29S 12°28' E 130°51'0 0.0
2014-Oct-17 11:29S 12°28' E 130°51'0 0.0
2014-Oct-17 10:29S 12°28' E 130°51'0 0.1
2014-Oct-17 09:29S 12°28' E 130°51'1314.0
2014-Oct-17 08:33S 12°22' E 130°39'1716.5
2014-Oct-17 07:33S 12°22' E 130°22'5 0.6
2014-Oct-16 23:28S 12°22' E 130°27'1415.2
2014-Oct-16 22:33S 12°23' E 130°42'10 9.6
2014-Oct-16 21:29S 12°28' E 130°51'1 0.7
2014-Oct-16 20:27S 12°28' E 130°51'5 5.9
2014-Oct-16 19:33S 12°25' E 130°46'1717.5
2014-Oct-16 18:33S 12°21' E 130°29'10 1.5
2014-Oct-16 11:30S 12°22' E 130°18'1717.3
2014-Oct-16 10:29S 12°22' E 130°36'1615.6
2014-Oct-16 09:29S 12°28' E 130°51'9 9.2
2014-Oct-16 08:33S 12°23' E 130°44'1717.3
2014-Oct-16 07:33S 12°22' E 130°26'4 0.4
2014-Oct-15 22:33S 12°21' E 130°23'1616.5
2014-Oct-15 21:33S 12°22' E 130°39'1310.5
2014-Oct-15 20:21S 12°28' E 130°50'1416.4
2014-Oct-15 19:30S 12°22' E 130°38'1716.6
2014-Oct-15 18:30S 12°23' E 130°21'17 3.3
2014-Oct-15 13:09S 12°23' E 130°03'1016.0
2014-Oct-15 12:32S 12°23' E 130°13'  

Dump ship's entire track history